Weather in Osh

Kyrgyzstan     40˚31′02″N   72˚48′19″E
temp.,
°C
wind,
m/s
gust,
m/s
humid.,
%
clouds,
%
prec.,
mm/h
press.,
hPa
HPBL,
m
28 november, sat
sat2800:00+2˚sw1161100 0.0 102522
03:00+3˚s1255100 0.0 102522
06:00+2˚sw2257100 0.0 102822
09:00+1˚ssw41495100 0.5 1033759
12:00+2˚s3990100 2.9 1036666
15:00+3˚ssw3678100 0.1 1036953
18:00ssw247597 0.1 1040106
21:00−2˚sse117866 0.0 104222
29 november, sun
sun2900:00−2˚e127652 0.0 104326
03:00−3˚ese117313 0.0 104221
06:00−3˚ese11707 0.0 104321
09:00−3˚e11710 0.0 104224
12:00nnw11670 0.0 1038259
15:00+2˚n11610 0.0 1035383
18:00−1˚n117322 0.0 103730
21:00−2˚se117591 0.0 103723
30 november, mon
mon3000:00−2˚se117072 0.0 103721
03:00−3˚se116428 0.0 103621
06:00−3˚se115621 0.0 103621
09:00−2˚se11480 0.0 103621
12:00+2˚nw10440 0.0 1033212
15:00+3˚n11440 0.0 1030287
18:00nne015442 0.0 103025
21:00−1˚e1153100 0.0 103021
1 december, tue
tue100:00ese0151100 0.0 102821
03:00ssw0150100 0.0 102722
06:00+1˚ese1148100 0.0 102522
09:00+1˚s1149100 0.1 102522
12:00+4˚ese1144100 0.1 1025104
15:00+3˚ese1251100 0.2 1025236
18:00+2˚n1276100 0.8 102860
21:00+2˚s1176100 0.0 103024
2 december, wed
wed200:00+1˚ene1178100 0.0 103123
03:00+1˚wnw0082100 0.0 103122
06:00+1˚ese1185100 0.0 103222
09:00+1˚ese1180100 0.0 103322
12:00+5˚nnw1165100 0.0 1030136
15:00+6˚nnw1162100 0.0 1027286
18:00+3˚nw1280100 0.0 102941
21:00+3˚sse227669 0.0 102922